ISS DEB (47853 NORAD) Tracking and Keplerian Element Data

This shows tracking and keplerian element data for the satellite.

Feedback or suggestion? Click here.




ElementValue
Catalog47853
NameISS DEB
Epoch Orbit16195
Epoch Day13.14613514
Epoch Year2024
RAAN295.0125
Inclination51.626
Eccentricity0.0002019
Argument of Perigee111.461
Mean Anonmoly248.6613
Mean Motion15.93103938
Decay Rate0.00140281
L11 47853U 98067RZ 24013.14613514 .00140281 18623-4 39817-3 0 9993
L22 47853 51.6260 295.0125 0002019 111.4610 248.6613 15.93103938161953



Live tracking and technical data element details for ISS DEB (NORAD 47853). ISS DEB can be tracked NOW for your location showing map with azimuth and elevation plus other details from your city location.







IsCatalogInMostPopularTable: catalog: 47853, numindb: 1244
Update: records affected: 1



GetName: 47853 ISS DEB

Hit Count: updated at: Tue, 17 Sep 2024 12:04:51 GMT